{"data":{"norad_id":56134,"intl_designator":"2023-046AU","name":"STARLINK-5564","alt_names":[],"object_type":"PAYLOAD","status":"ACTIVE","operator":null,"country":"US","launch_date":"2023-03-29","launch_site_code":"AFETR","launch_vehicle":null,"mission":null,"orbit_class":"UNKNOWN","rcs_meters":null,"size_class":null,"mass_kg":null,"dimensions":null,"purposes":["comms"],"wikipedia_slug":null,"has_3d_model":false,"image_url":null,"decayed_at":null,"tle_current":{"epoch":"2026-09-19T22:54:12.924864Z","epoch_age_seconds":155804,"freshness":"FRESH","line1":"1 56134U 23046AU  26262.95431626  .00002327  00000+0  94075-4 0  9990","line2":"2 56134  43.0039 129.6071 0001301 277.5877  82.4827 15.27579767191901","mean_motion":15.27579767,"eccentricity":0.0001301,"inclination_deg":43.0039,"raan_deg":129.6071,"arg_perigee_deg":277.5877,"mean_anomaly_deg":82.4827,"bstar":9.4075e-5,"rev_number":19190,"period_min":94.266763092051,"perigee_km":482.1571533237,"apogee_km":483.94243412743,"semimajor_km":6861.1867937256,"source":"CELESTRAK","updated_at":"2026-09-21T09:00:33.388714Z"}}}